Location: *
(41.3833°S, 177.8333°W)
Time: 03:05:37
(UTC+00:00)

Cosmos 2266 Rocket - Pass Details

Date: 01 April 2020
Orbit: 933 x 1009 km, 82.9° (Epoch: 31 May)

Event Time Altitude Azimuth Distance (km) Brightness Sun altitude
Rises 16:54:16 0° 185° (S) 3,642 7.0 -14.6°
Reaches altitude 10° 16:56:47 10° 182° (S) 2,697 6.4 -14.2°
Maximum altitude 17:02:55 65° 99° (E) 1,054 4.5 -13.0°
Drops below altitude 10° 17:09:05 10° 17° (NNE) 2,712 6.5 -11.9°
Sets 17:11:37 0° 14° (NNE) 3,663 7.2 -11.4°
